Weather History for Fort Rucker / Ozark, AL

Change the Weather History Date:

Saturday, October 5, 2013

  Actual Average (KOZR) Record (KOZR)
Temperature  
Mean Temperature 80 °F -  
Max Temperature 89 °F 77 °F 89 °F (1998)
Min Temperature 71 °F 59 °F 45 °F (2010)
Cooling Degree Days 15    
Growing Degree Days 30 (Base 50)    
Moisture  
Dew Point 67 °F    
Average Humidity 68    
Maximum Humidity 87    
Minimum Humidity 43    
Precipitation  
Precipitation 0.00 in - - ()
Sea Level Pressure  
Sea Level Pressure 29.71 in    
Wind  
Wind Speed 3 mph (East)    
Max Wind Speed 9 mph    
Max Gust Speed -    
Visibility 10 miles    
Events      
Averages and records for this station are not official NWS values.
T = Trace of Precipitation, MM = Missing Value Source: NWS Daily Summary

Daily Weather History Graph

Daily Weather History Graph

Search for Another Location

Airport:

Trip Planner

Search our weather history database for the weather conditions in past years. The results will help you decide how hot, cold, wet, or windy it might be!

Date:

Astronomy

Oct. 05, 2013 Rise Set
Actual Time 6:39 AM CDT 6:22 PM CDT
Civil Twilight 6:14 AM CDT 6:46 PM CDT
Nautical Twilight 5:46 AM CDT 7:14 PM CDT
Astronomical Twilight 5:18 AM CDT 7:42 PM CDT
Moon 7:12 AM CDT (10/5) 6:47 PM CDT (10/5)
Length of Visible Light 12h 31m
Length of Day
11h 43m
New Moon, 1% of the Moon is Illuminated
Oct 5
New Moon
Oct 11
First Quarter
Oct 18
Full
Oct 26
Last Quarter
Nov 3
New

Hourly Weather History & Observations

Time (CDT) Temp. Heat Index Dew Point Humidity Pressure Visibility Wind Dir Wind Speed Gust Speed Precip Events Conditions
12:53 AM 73.0 °F - 68.0 °F 84% 29.74 in 10.0 mi Calm Calm - N/A   Clear
1:53 AM 73.9 °F - 68.0 °F 82% 29.73 in 10.0 mi ENE 4.6 mph - N/A   Clear
2:53 AM 73.0 °F - 66.9 °F 81% 29.72 in 10.0 mi Calm Calm - N/A   Clear
3:53 AM 71.1 °F - 66.9 °F 87% 29.72 in 10.0 mi Calm Calm - N/A   Clear
4:53 AM 72.0 °F - 66.0 °F 81% 29.73 in 10.0 mi NE 3.5 mph - N/A   Clear
5:53 AM 72.0 °F - 66.0 °F 81% 29.74 in 10.0 mi Calm Calm - N/A   Clear
6:53 AM 71.1 °F - 64.9 °F 81% 29.74 in 10.0 mi ENE 3.5 mph - N/A   Clear
7:53 AM 72.0 °F - 66.0 °F 81% 29.75 in 10.0 mi East 4.6 mph - N/A   Clear
8:53 AM 75.9 °F - 68.0 °F 76% 29.76 in 10.0 mi ENE 4.6 mph - N/A   Clear
9:53 AM 82.0 °F 86.3 °F 71.1 °F 69% 29.76 in 10.0 mi ESE 8.1 mph - N/A   Clear
10:53 AM 84.9 °F 89.4 °F 70.0 °F 61% 29.75 in 10.0 mi ESE 8.1 mph - N/A   Scattered Clouds
11:53 AM 86.0 °F 90.7 °F 70.0 °F 59% 29.74 in 10.0 mi ESE 8.1 mph - N/A   Scattered Clouds
12:53 PM 88.0 °F 90.7 °F 66.9 °F 49% 29.71 in 10.0 mi Variable 6.9 mph - N/A   Partly Cloudy
1:53 PM 89.1 °F 91.0 °F 64.9 °F 45% 29.69 in 10.0 mi East 8.1 mph - N/A   Mostly Cloudy
2:53 PM 89.1 °F 90.3 °F 64.0 °F 43% 29.67 in 10.0 mi East 8.1 mph - N/A   Scattered Clouds
3:53 PM 89.1 °F 90.3 °F 64.0 °F 43% 29.66 in 10.0 mi East 9.2 mph - N/A   Clear
4:53 PM 88.0 °F 89.3 °F 64.0 °F 45% 29.65 in 10.0 mi SE 6.9 mph - N/A   Partly Cloudy
5:53 PM 84.0 °F 86.3 °F 66.0 °F 55% 29.65 in 10.0 mi East 5.8 mph - N/A   Clear
6:53 PM 81.0 °F 83.0 °F 66.0 °F 60% 29.66 in 10.0 mi East 3.5 mph - N/A   Clear
7:53 PM 80.1 °F 82.1 °F 66.0 °F 62% 29.67 in 10.0 mi East 4.6 mph - N/A   Partly Cloudy
8:53 PM 78.1 °F - 66.9 °F 68% 29.69 in 10.0 mi Calm Calm - N/A   Overcast
9:53 PM 75.0 °F - 68.0 °F 79% 29.69 in 10.0 mi Calm Calm - N/A   Mostly Cloudy
10:53 PM 73.9 °F - 68.0 °F 82% 29.68 in 10.0 mi Calm Calm - N/A   Partly Cloudy
11:53 PM 72.0 °F - 66.9 °F 84% 29.67 in 10.0 mi Calm Calm - N/A   Clear